SCP
0 0 0 0 0 0 0 0 0 0 0 0 0 0 0 0 0 1 2 4 5 4
0 0 0 0 0 0 0 0 0 0 0 0 0 0 0 0 0 0 1 1 3 5
0 0 0 0 0 0 0 0 0 0 0 0 0 0 0 0 0 0 0 0 0 1
0 0 0 0 0 0 0 0 0 0 0 0 0 0 0 0 0 0 0 0 0 0
0 0 0 0 0 0 0 0 0 0 0 0 0 0 0 0 0 0 0 0 0 0
0 0 0 0 0 0 0 0 0 0 0 0 0 0 0 0 0 0 0 0 0 0
0 0 0 0 0 0 0 0 0 0 0 0 0 0 0 0 0 0 0 0 0 0
0 0 0 0 0 0 0 0 0 0 0 0 0 0 0 0 0 0 0 0 0 0
0 0 0 0 0 0 0 0 0 0 0 0 0 0 0 0 0 0 0 0 0 0
0 0 0 0 0 0 0 0 0 0 0 0 0 0 0 0 0 0 0 0 0 0
0 0 0 0 0 0 0 0 0 0 0 0 0 0 0 0 0 0 0 0 0 0
0 0 0 0 0 0 0 0 0 0 0 0 0 0 0 0 0 0 0 0 0 0
0 0 0 0 0 0 0 0 0 0 0 0 0 0 0 0 0 0 0 0 0 0
-0 -0 -0 0 0 0 0 0 0 0 0 0 0 0 0 0 0 0 0 0 0 0
Wind_Speed_500mb
22 14 22 22 39 46 44 46 48 56 59 62 59 60 60 58 60 61 68 72 79 84
26 32 33 41 46 38 46 43 52 59 66 66 64 61 62 61 66 69 73 82 83 82
30 32 39 43 45 46 48 50 53 55 55 55 55 51 56 59 60 66 74 76 84 88
27 29 30 32 32 37 43 48 51 52 54 55 56 55 59 62 66 70 71 72 86 76
27 28 30 33 37 40 44 44 46 49 51 53 54 56 57 58 61 67 65 69 78 69
27 29 32 37 39 42 43 46 49 53 58 60 64 62 59 67 78 74 77 81 74 71
29 32 36 37 40 42 46 49 52 56 60 66 62 62 63 68 69 68 73 72 72 83
32 35 37 39 41 46 48 50 54 57 59 60 64 59 68 70 70 74 76 75 75 81
34 37 38 41 47 50 55 58 55 56 59 66 60 67 71 71 79 80 77 82 76 77
34 38 40 44 51 56 56 59 58 63 61 66 64 62 62 73 77 78 81 82 82 78
35 39 43 46 48 51 57 54 62 71 70 61 61 59 68 76 77 74 72 76 77 78
37 41 44 46 51 54 54 61 68 64 54 54 58 60 66 65 65 66 68 66 64 69
39 41 45 48 50 51 52 64 54 55 54 58 64 57 52 48 49 57 59 61 64 65
35 37 41 44 46 49 56 46 49 57 62 66 60 61 60 55 55 64 72 73 74 68
Wind_Direction_500mb
302 301 299 291 284 289 289 289 285 282 285 285 284 280 274 271 268 263 256 261 257 254
301 296 297 294 292 296 287 288 282 281 283 283 281 279 276 275 269 265 262 255 255 256
302 302 297 296 295 295 294 294 293 292 292 291 288 286 280 277 275 272 267 263 261 258
311 308 306 305 305 304 301 301 300 299 296 292 287 284 280 275 271 267 266 265 259 259
311 309 309 308 307 306 302 299 297 293 289 287 287 281 277 280 276 270 272 272 264 265
307 309 308 307 305 304 301 298 298 299 302 302 297 290 285 278 273 274 273 269 265 270
308 309 311 308 306 305 307 308 304 303 299 295 291 288 286 284 280 281 283 276 274 268
307 310 309 307 309 308 308 305 304 301 299 297 294 290 287 284 283 281 280 276 279 269
308 308 307 307 307 308 309 307 306 302 301 296 295 290 292 282 289 283 281 281 276 275
306 307 307 306 310 308 310 307 304 304 301 299 296 295 295 290 290 287 281 281 276 275
308 306 305 306 311 308 311 310 306 306 308 303 298 299 294 292 292 289 282 279 275 273
305 305 307 311 311 313 313 306 313 314 313 305 301 295 294 294 287 283 283 280 273 269
305 304 307 313 313 317 310 315 319 321 315 305 302 303 309 309 294 283 284 282 280 275
307 311 313 317 315 311 317 322 331 324 317 317 317 306 311 310 296 292 289 288 288 287
Wind_Speed_850mb
22 14 22 22 39 46 44 46 48 56 59 62 59 60 60 58 60 61 68 72 79 84
26 32 33 41 46 38 46 43 52 59 66 66 64 61 62 61 66 69 73 82 83 82
30 32 39 43 45 46 48 50 53 55 55 55 55 51 56 59 60 66 74 76 84 88
27 29 30 32 32 37 43 48 51 52 54 55 56 55 59 62 66 70 71 72 86 76
27 28 30 33 37 40 44 44 46 49 51 53 54 56 57 58 61 67 65 69 78 69
27 29 32 37 39 42 43 46 49 53 58 60 64 62 59 67 78 74 77 81 74 71
29 32 36 37 40 42 46 49 52 56 60 66 62 62 63 68 69 68 73 72 72 83
32 35 37 39 41 46 48 50 54 57 59 60 64 59 68 70 70 74 76 75 75 81
34 37 38 41 47 50 55 58 55 56 59 66 60 67 71 71 79 80 77 82 76 77
34 38 40 44 51 56 56 59 58 63 61 66 64 62 62 73 77 78 81 82 82 78
35 39 43 46 48 51 57 54 62 71 70 61 61 59 68 76 77 74 72 76 77 78
37 41 44 46 51 54 54 61 68 64 54 54 58 60 66 65 65 66 68 66 64 69
39 41 45 48 50 51 52 64 54 55 54 58 64 57 52 48 49 57 59 61 64 65
35 37 41 44 46 49 56 46 49 57 62 66 60 61 60 55 55 64 72 73 74 68
Wind_Direction_850mb
302 301 299 291 284 289 289 289 285 282 285 285 284 280 274 271 268 263 256 261 257 254
301 296 297 294 292 296 287 288 282 281 283 283 281 279 276 275 269 265 262 255 255 256
302 302 297 296 295 295 294 294 293 292 292 291 288 286 280 277 275 272 267 263 261 258
311 308 306 305 305 304 301 301 300 299 296 292 287 284 280 275 271 267 266 265 259 259
311 309 309 308 307 306 302 299 297 293 289 287 287 281 277 280 276 270 272 272 264 265
307 309 308 307 305 304 301 298 298 299 302 302 297 290 285 278 273 274 273 269 265 270
308 309 311 308 306 305 307 308 304 303 299 295 291 288 286 284 280 281 283 276 274 268
307 310 309 307 309 308 308 305 304 301 299 297 294 290 287 284 283 281 280 276 279 269
308 308 307 307 307 308 309 307 306 302 301 296 295 290 292 282 289 283 281 281 276 275
306 307 307 306 310 308 310 307 304 304 301 299 296 295 295 290 290 287 281 281 276 275
308 306 305 306 311 308 311 310 306 306 308 303 298 299 294 292 292 289 282 279 275 273
305 305 307 311 311 313 313 306 313 314 313 305 301 295 294 294 287 283 283 280 273 269
305 304 307 313 313 317 310 315 319 321 315 305 302 303 309 309 294 283 284 282 280 275
307 311 313 317 315 311 317 322 331 324 317 317 317 306 311 310 296 292 289 288 288 287